| time (UTC) | temp F | wind direction | speed knots | gust knots | rain 1hr in | rain 24hr in | rain mn in | humidity % | barometer mb |
| 20260504183114 | 71 | 260 | 4.3 | 15.6 | 0.00 | 0.01 | 0.00 | 51 | 1007.5 |
| 20260504181606 | 72 | 169 | 6.1 | 13.0 | 0.00 | 0.01 | 0.00 | 50 | 1007.4 |
| 20260504180111 | 72 | 187 | 7.0 | 13.0 | 0.00 | 0.01 | 0.00 | 50 | 1007.3 |
| 20260504174601 | 72 | 302 | 4.3 | 12.2 | 0.00 | 0.01 | 0.00 | 49 | 1007.4 |
| 20260504173109 | 71 | 244 | 5.2 | 18.2 | 0.00 | 0.01 | 0.00 | 52 | 1007.4 |
| 20260504171610 | 70 | 248 | 6.1 | 13.0 | 0.00 | 0.01 | 0.00 | 51 | 1007.6 |
| 20260504160105 | 66 | 156 | 5.2 | 8.7 | 0.00 | 0.01 | 0.00 | 58 | 1008.6 |
| 20260504140111 | 60 | 193 | 2.6 | 8.7 | 0.00 | 0.01 | 0.00 | 62 | 1009.2 |
| 20260504120110 | 52 | 0 | 0.9 | 3.5 | 0.00 | 0.01 | 0.00 | 68 | 1009.6 |
| 20260504110107 | 49 | 0 | 0.9 | 3.5 | 0.00 | 0.01 | 0.00 | 69 | 1009.3 |
| 20260504081558 | 50 | 201 | 0.9 | 5.2 | 0.00 | 0.01 | 0.00 | 65 | 1010.4 |
| 20260504060107 | 52 | 0 | 0.9 | 4.3 | 0.00 | 0.01 | 0.00 | 61 | 1011.6 |
| 20260504044600 | 51 | 249 | 0.0 | 3.5 | 0.00 | 0.01 | 0.00 | 64 | 1012.2 |
| 20260504043101 | 51 | 127 | 0.0 | 2.6 | 0.00 | 0.01 | 0.00 | 65 | 1012.3 |
| 20260504041557 | 51 | 132 | 0.0 | 2.6 | 0.00 | 0.01 | 0.00 | 65 | 1012.4 |
| 20260504040056 | 51 | 141 | 0.9 | 2.6 | 0.00 | 0.01 | 0.00 | 66 | 1012.5 |
| 20260504034557 | 51 | 167 | 0.0 | 2.6 | 0.00 | 0.01 | 0.01 | 66 | 1012.7 |
| 20260504033115 | 51 | 145 | 0.9 | 3.5 | 0.00 | 0.01 | 0.01 | 66 | 1012.9 |
| 20260504031603 | 51 | 132 | 0.9 | 3.5 | 0.00 | 0.01 | 0.01 | 66 | 1013.1 |
| 20260504030056 | 50 | 143 | 0.0 | 2.6 | 0.00 | 0.01 | 0.01 | 67 | 1013.2 |
| 20260504024602 | 50 | 142 | 0.0 | 3.5 | 0.00 | 0.01 | 0.01 | 66 | 1013.3 |
| 20260504023058 | 50 | 125 | 0.9 | 4.3 | 0.00 | 0.01 | 0.01 | 67 | 1013.3 |
| 20260504021556 | 49 | 129 | 0.9 | 3.5 | 0.00 | 0.01 | 0.01 | 69 | 1013.3 |
| 20260504020058 | 49 | 110 | 0.9 | 4.3 | 0.00 | 0.01 | 0.01 | 73 | 1013.4 |
| 20260504014559 | 48 | 0 | 0.9 | 2.6 | 0.00 | 0.01 | 0.01 | 77 | 1013.3 |
| 20260504013107 | 48 | 139 | 0.0 | 0.9 | 0.00 | 0.01 | 0.01 | 80 | 1013.3 |
| 20260504011600 | 48 | 0 | 0.0 | 0.9 | 0.00 | 0.01 | 0.01 | 81 | 1013.4 |
| 20260504004620 | 48 | 124 | 0.0 | 1.7 | 0.00 | 0.01 | 0.01 | 80 | 1013.3 |
| 20260504003102 | 48 | 0 | 0.0 | 1.7 | 0.00 | 0.01 | 0.01 | 79 | 1013.4 |
| 20260504001608 | 48 | 0 | 0.0 | 0.9 | 0.00 | 0.01 | 0.01 | 79 | 1013.7 |
| 20260503234600 | 49 | 0 | 0.0 | 2.6 | 0.00 | 0.01 | 0.01 | 80 | 1013.5 |
| 20260503233057 | 49 | 120 | 0.0 | 2.6 | 0.00 | 0.01 | 0.01 | 81 | 1013.6 |
| 20260503231600 | 49 | 127 | 0.0 | 2.6 | 0.01 | 0.01 | 0.01 | 82 | 1013.7 |
| 20260503230110 | 48 | 0 | 0.0 | 0.9 | 0.01 | 0.01 | 0.01 | 82 | 1014.1 |
| 20260503224559 | 49 | 0 | 0.0 | 0.9 | 0.01 | 0.01 | 0.01 | 82 | 1014.3 |
| 20260503223101 | 49 | 0 | 0.0 | 5.2 | 0.01 | 0.01 | 0.01 | 77 | 1015.5 |
| 20260503221600 | 50 | 178 | 1.7 | 7.0 | 0.00 | 0.00 | 0.00 | 70 | 1015.8 |
| 20260503214607 | 54 | 232 | 4.3 | 16.5 | 0.00 | 0.00 | 0.00 | 49 | 1015.2 |
| 20260503213102 | 57 | 191 | 6.1 | 13.9 | 0.00 | 0.00 | 0.00 | 43 | 1014.9 |
| 20260503211605 | 58 | 253 | 4.3 | 10.4 | 0.00 | 0.00 | 0.00 | 38 | 1014.6 |
| 20260503210100 | 59 | 203 | 3.5 | 9.6 | 0.00 | 0.00 | 0.00 | 38 | 1014.7 |
| 20260503204600 | 59 | 226 | 4.3 | 9.6 | 0.00 | 0.00 | 0.00 | 38 | 1014.8 |
| 20260503203106 | 59 | 280 | 3.5 | 12.2 | 0.00 | 0.00 | 0.00 | 35 | 1014.9 |
| 20260503201600 | 61 | 179 | 2.6 | 10.4 | 0.00 | 0.00 | 0.00 | 36 | 1015.0 |
| 20260503200059 | 61 | 233 | 2.6 | 10.4 | 0.00 | 0.00 | 0.00 | 37 | 1015.1 |
| 20260503194559 | 61 | 290 | 3.5 | 13.0 | 0.00 | 0.00 | 0.00 | 35 | 1015.2 |
| 20260503193101 | 61 | 156 | 3.5 | 12.2 | 0.00 | 0.00 | 0.00 | 36 | 1015.5 |
| 20260503191559 | 61 | 293 | 4.3 | 11.3 | 0.00 | 0.00 | 0.00 | 35 | 1015.6 |
| 20260503190100 | 60 | 179 | 3.5 | 10.4 | 0.00 | 0.00 | 0.00 | 37 | 1015.9 |
| 20260503184608 | 60 | 249 | 5.2 | 10.4 | 0.00 | 0.00 | 0.00 | 36 | 1016.1 |